EN

Hourly Weather Dzhuryntsi

Today, 21 October, Wednesday

Time Temperature Precipitation Wind Pressure Humidity
00:00 +6°C° 0 mm 2 mps 747 mmHg 74%
01:00 +6°C° 0 mm 2 mps 747 mmHg 74%
02:00 +5°C° 0 mm 2 mps 747 mmHg 75%
03:00 +4°C° 0 mm 3 mps 746 mmHg 75%
04:00 +4°C° 0 mm 3 mps 746 mmHg 75%
05:00 +4°C° 0 mm 3 mps 746 mmHg 76%
06:00 +4°C° 0 mm 4 mps 745 mmHg 73%
07:00 +5°C° 0 mm 5 mps 745 mmHg 71%
08:00 +6°C° 0 mm 5 mps 745 mmHg 67%
09:00 +7°C° 0 mm 6 mps 745 mmHg 64%
10:00 +8°C° 0 mm 6 mps 744 mmHg 60%
11:00 +9°C° 0 mm 6 mps 744 mmHg 57%
12:00 +10°C° 0 mm 6 mps 744 mmHg 56%
13:00 +11°C° 0 mm 6 mps 743 mmHg 55%
14:00 +11°C° 0 mm 6 mps 743 mmHg 55%
15:00 +12°C° 0 mm 5 mps 742 mmHg 58%
16:00 +11°C° 0 mm 3 mps 742 mmHg 61%
17:00 +10°C° 0 mm 2 mps 741 mmHg 65%
18:00 +10°C° 0 mm 2 mps 742 mmHg 66%
19:00 +10°C° 0 mm 2 mps 742 mmHg 67%
20:00 +9°C° 0 mm 2 mps 742 mmHg 67%
21:00 +9°C° 0 mm 2 mps 742 mmHg 67%
22:00 +10°C° 0 mm 1 mps 742 mmHg 67%
23:00 +9°C° 0 mm 1 mps 741 mmHg 66%

Tomorrow, 22 October, Thursday

Time Temperature Precipitation Wind Pressure Humidity
00:00 +9°C° 0 mm 1 mps 741 mmHg 65%
01:00 +8°C° 0 mm 0 mps 742 mmHg 63%
02:00 +8°C° 0 mm 0 mps 742 mmHg 61%
03:00 +8°C° 0 mm 0 mps 741 mmHg 61%
04:00 +9°C° 0 mm 1 mps 741 mmHg 60%
05:00 +8°C° 0 mm 1 mps 741 mmHg 59%
06:00 +9°C° 0 mm 1 mps 741 mmHg 58%
07:00 +10°C° 0 mm 1 mps 742 mmHg 57%
08:00 +10°C° 0 mm 1 mps 742 mmHg 56%
09:00 +12°C° 0 mm 1 mps 742 mmHg 51%
10:00 +14°C° 0 mm 2 mps 742 mmHg 46%
11:00 +16°C° 0 mm 2 mps 742 mmHg 41%
12:00 +17°C° 0 mm 2 mps 742 mmHg 40%
13:00 +17°C° 0 mm 3 mps 742 mmHg 39%
14:00 +18°C° 0 mm 3 mps 742 mmHg 38%
15:00 +17°C° 0 mm 3 mps 742 mmHg 43%
16:00 +16°C° 0 mm 2 mps 741 mmHg 48%
17:00 +14°C° 0 mm 2 mps 741 mmHg 53%
18:00 +14°C° 0 mm 2 mps 741 mmHg 54%
19:00 +13°C° 0 mm 2 mps 741 mmHg 55%
20:00 +12°C° 0 mm 2 mps 741 mmHg 56%
21:00 +12°C° 0 mm 2 mps 741 mmHg 57%
22:00 +12°C° 0 mm 2 mps 741 mmHg 57%
23:00 +12°C° 0 mm 2 mps 741 mmHg 57%

Day after tomorrow, 23 October, Friday

Time Temperature Precipitation Wind Pressure Humidity
00:00 +10°C° 0 mm 2 mps 741 mmHg 58%
01:00 +10°C° 0 mm 2 mps 741 mmHg 58%
02:00 +11°C° 0 mm 1 mps 741 mmHg 59%
03:00 +11°C° 0 mm 1 mps 741 mmHg 59%
04:00 +11°C° 0 mm 1 mps 740 mmHg 59%
05:00 +11°C° 0 mm 1 mps 740 mmHg 60%
06:00 +11°C° 0 mm 1 mps 740 mmHg 60%
07:00 +12°C° 0 mm 1 mps 740 mmHg 60%
08:00 +11°C° 0 mm 0 mps 740 mmHg 59%
09:00 +14°C° 0 mm 1 mps 740 mmHg 54%
10:00 +15°C° 0 mm 1 mps 740 mmHg 49%
11:00 +18°C° 0 mm 1 mps 740 mmHg 44%
12:00 +17°C° 0 mm 2 mps 739 mmHg 41%
13:00 +18°C° 0 mm 2 mps 739 mmHg 39%
14:00 +19°C° 0 mm 2 mps 739 mmHg 37%
15:00 +17°C° 0 mm 2 mps 738 mmHg 41%
16:00 +16°C° 0 mm 2 mps 738 mmHg 46%
17:00 +15°C° 0 mm 2 mps 737 mmHg 50%
18:00 +14°C° 0 mm 2 mps 737 mmHg 52%
19:00 +14°C° 0 mm 2 mps 737 mmHg 55%
20:00 +13°C° 0 mm 2 mps 737 mmHg 57%
21:00 +13°C° 0 mm 2 mps 737 mmHg 59%
22:00 +13°C° 0 mm 2 mps 737 mmHg 62%
23:00 +12°C° 0 mm 2 mps 737 mmHg 64%

24 October, Saturday

Time Temperature Precipitation Wind Pressure Humidity
00:00 +12°C° 0 mm 2 mps 737 mmHg 67%
01:00 +12°C° 0 mm 2 mps 737 mmHg 70%
02:00 +12°C° 0 mm 2 mps 737 mmHg 73%
03:00 +12°C° 0 mm 2 mps 737 mmHg 76%
04:00 +10°C° 0 mm 2 mps 737 mmHg 78%
05:00 +11°C° 0 mm 1 mps 737 mmHg 81%
06:00 +10°C° 0 mm 2 mps 737 mmHg 80%
07:00 +10°C° 0 mm 2 mps 737 mmHg 79%
08:00 +12°C° 0 mm 2 mps 737 mmHg 78%
09:00 +13°C° 0 mm 2 mps 737 mmHg 71%
10:00 +15°C° 0 mm 2 mps 737 mmHg 64%
11:00 +16°C° 0 mm 3 mps 737 mmHg 57%
12:00 +17°C° 0 mm 3 mps 737 mmHg 57%
13:00 +17°C° 0 mm 3 mps 737 mmHg 56%
14:00 +17°C° 0 mm 3 mps 737 mmHg 55%
15:00 +16°C° 0 mm 3 mps 737 mmHg 60%
16:00 +14°C° 0 mm 3 mps 736 mmHg 64%
17:00 +14°C° 0 mm 2 mps 736 mmHg 69%
18:00 +13°C° 0 mm 2 mps 737 mmHg 73%
19:00 +13°C° 0 mm 2 mps 737 mmHg 77%
20:00 +12°C° 0 mm 2 mps 737 mmHg 80%
21:00 +11°C° 0 mm 3 mps 738 mmHg 82%
22:00 +11°C° 0 mm 3 mps 738 mmHg 83%
23:00 +11°C° 0 mm 3 mps 738 mmHg 84%

25 October, Sunday

Time Temperature Precipitation Wind Pressure Humidity
00:00 +11°C° 0 mm 3 mps 738 mmHg 87%
01:00 +10°C° 0 mm 3 mps 739 mmHg 89%
02:00 +10°C° 0 mm 3 mps 739 mmHg 92%
03:00 +10°C° 0 mm 4 mps 739 mmHg 92%
04:00 +10°C° 0 mm 4 mps 739 mmHg 92%
05:00 +8°C° 0 mm 4 mps 740 mmHg 92%
06:00 +8°C° 0 mm 4 mps 740 mmHg 91%
07:00 +8°C° 0 mm 4 mps 740 mmHg 89%
08:00 +8°C° 0 mm 4 mps 741 mmHg 88%
09:00 +11°C° 0 mm 4 mps 741 mmHg 79%
10:00 +12°C° 0 mm 4 mps 741 mmHg 70%
11:00 +13°C° 0 mm 5 mps 741 mmHg 62%
12:00 +13°C° 0 mm 4 mps 741 mmHg 59%
13:00 +14°C° 0 mm 4 mps 741 mmHg 56%
14:00 +14°C° 0 mm 3 mps 741 mmHg 53%
15:00 +14°C° 0 mm 2 mps 741 mmHg 57%
16:00 +13°C° 0 mm 2 mps 741 mmHg 61%
17:00 +12°C° 0 mm 1 mps 741 mmHg 65%
18:00 +11°C° 0 mm 1 mps 742 mmHg 68%
19:00 +11°C° 0 mm 1 mps 742 mmHg 71%
20:00 +10°C° 0 mm 1 mps 742 mmHg 73%
21:00 +9°C° 0 mm 2 mps 742 mmHg 75%
22:00 +8°C° 0 mm 2 mps 742 mmHg 78%
23:00 +8°C° 0 mm 2 mps 742 mmHg 80%

26 October, Monday

Time Temperature Precipitation Wind Pressure Humidity
00:00 +7°C° 0 mm 2 mps 742 mmHg 82%
01:00 +7°C° 0 mm 2 mps 742 mmHg 84%
02:00 +7°C° 0 mm 2 mps 742 mmHg 86%
03:00 +6°C° 0 mm 2 mps 742 mmHg 87%
04:00 +6°C° 0 mm 2 mps 742 mmHg 89%
05:00 +6°C° 0 mm 2 mps 742 mmHg 90%
06:00 +6°C° 0 mm 2 mps 742 mmHg 89%
07:00 +7°C° 0 mm 3 mps 743 mmHg 89%
08:00 +7°C° 0 mm 3 mps 743 mmHg 88%
09:00 +9°C° 0 mm 3 mps 743 mmHg 80%
10:00 +10°C° 0 mm 3 mps 743 mmHg 73%
11:00 +12°C° 0 mm 4 mps 743 mmHg 65%
12:00 +13°C° 0 mm 4 mps 742 mmHg 62%
13:00 +13°C° 0 mm 4 mps 742 mmHg 60%
14:00 +14°C° 0 mm 4 mps 742 mmHg 57%
15:00 +13°C° 0 mm 4 mps 741 mmHg 61%
16:00 +12°C° 0 mm 3 mps 741 mmHg 65%
17:00 +11°C° 0 mm 3 mps 741 mmHg 69%
18:00 +10°C° 0 mm 3 mps 741 mmHg 70%
19:00 +10°C° 0 mm 3 mps 741 mmHg 71%
20:00 +10°C° 0 mm 3 mps 741 mmHg 72%
21:00 +8°C° 0 mm 4 mps 741 mmHg 71%
22:00 +8°C° 0 mm 4 mps 741 mmHg 69%
23:00 +8°C° 0 mm 4 mps 741 mmHg 67%

27 October, Tuesday

Time Temperature Precipitation Wind Pressure Humidity
00:00 +7°C° 0 mm 4 mps 741 mmHg 68%
01:00 +8°C° 0 mm 3 mps 741 mmHg 69%
02:00 +8°C° 0 mm 3 mps 741 mmHg 69%
03:00 +8°C° 0 mm 3 mps 741 mmHg 71%
04:00 +7°C° 0 mm 3 mps 741 mmHg 73%
05:00 +7°C° 0 mm 3 mps 741 mmHg 75%
06:00 +7°C° 0 mm 3 mps 741 mmHg 75%
07:00 +6°C° 0 mm 4 mps 741 mmHg 75%
08:00 +7°C° 0 mm 4 mps 741 mmHg 75%
09:00 +8°C° 0 mm 4 mps 741 mmHg 72%
10:00 +10°C° 0 mm 4 mps 741 mmHg 69%
11:00 +12°C° 0 mm 5 mps 742 mmHg 67%
12:00 +12°C° 0.1 mm 5 mps 742 mmHg 70%
13:00 +12°C° 0.1 mm 5 mps 742 mmHg 73%
14:00 +12°C° 0.1 mm 5 mps 741 mmHg 75%
15:00 +11°C° 0.1 mm 4 mps 741 mmHg 79%
16:00 +11°C° 0.1 mm 4 mps 741 mmHg 83%
17:00 +10°C° 0.1 mm 3 mps 741 mmHg 87%
18:00 +10°C° 0 mm 3 mps 742 mmHg 87%
19:00 +9°C° 0 mm 3 mps 742 mmHg 87%
20:00 +9°C° 0 mm 3 mps 742 mmHg 87%
21:00 +9°C° 0 mm 3 mps 742 mmHg 85%
22:00 +8°C° 0 mm 3 mps 742 mmHg 83%
23:00 +8°C° 0 mm 3 mps 742 mmHg 81%
Show more